Tracking 34094 objects as of 11-May-2026
HD Live streaming from Space Station
objects crossing your sky now

CZ-6A DEB

Track CZ-6A DEB now!
10-day predictions


NORAD ID: 54263
Int'l Code: 2022-151E
Perigee: 828.9 km
Apogee: 1,280.7 km
Inclination: 99.1 °
Period: 106.1 minutes
Semi major axis: 7425 km
RCS: Unknown
Launch date: November 11, 2022
Source: People's Republic of China (PRC)
Launch site: Taiyaun Space Center, China (TSC)

Note: This is SATELLITE DEBRIS
Your satellite tracking list
Your tracking list is empty




NASA's NSSDC Master Catalog

Two Line Element Set (TLE):
1 54263U 22151E   26130.78755296  .00000637  00000-0  70844-3 0  9994
2 54263  99.1449  59.1223 0304246  34.4168 327.6272 13.56716032172851
Source of the keplerian elements: AFSPC